Location: Lawrence Hall of Science
(37.8785°N, 122.2415°W)
Time: 03:59:01
(UTC-07:00)

ARGOS - Visible Passes

Search period start: 30 August 2016 00:00
Search period end: 09 September 2016 00:00
Orbit: 821 x 834 km, 98.7° (Epoch: 30 August)

Date Brightness Start Highest point End Pass type
(mag) Time Alt. Az. Time Alt. Az. Time Alt. Az.
30 Aug 4.6 21:20:35 19° ENE 21:20:43 19° ENE 21:24:26 10° NNE visible
30 Aug 4.3 23:02:06 39° NW 23:02:06 39° NW 23:05:47 10° NNW visible
31 Aug 5.0 21:01:55 13° ENE 21:02:26 13° ENE 21:04:51 10° NNE visible
31 Aug 3.9 22:43:27 49° NNW 22:43:27 49° NNW 22:47:21 10° NNW visible
01 Sep 3.8 22:24:48 49° N 22:24:48 49° N 22:28:48 10° N visible
02 Sep 5.9 00:06:19 10° WNW 00:06:19 10° WNW 00:06:32 10° WNW visible
02 Sep 3.9 22:06:08 41° NE 22:06:08 41° NE 22:10:07 10° N visible
02 Sep 5.6 23:47:40 16° WNW 23:47:40 16° WNW 23:49:17 10° NW visible
03 Sep 4.2 21:47:28 30° NE 21:47:28 30° NE 21:51:17 10° N visible
03 Sep 5.3 23:29:00 22° WNW 23:29:00 22° WNW 23:31:24 10° NW visible
04 Sep 4.6 21:28:49 22° NE 21:28:49 22° NE 21:32:16 10° NNE visible
04 Sep 4.9 23:10:21 29° NW 23:10:21 29° NW 23:13:14 10° NNW visible
05 Sep 4.9 21:10:10 15° ENE 21:10:10 15° ENE 21:12:56 10° NNE visible
05 Sep 4.5 22:51:41 36° NNW 22:51:41 36° NNW 22:54:53 10° NNW visible
06 Sep 5.2 20:51:30 10° ENE 20:51:37 10° ENE 20:52:24 10° NE visible
06 Sep 4.2 22:33:02 39° N 22:33:02 39° N 22:36:23 10° NNW visible
07 Sep 4.2 22:14:22 37° NNE 22:14:22 37° NNE 22:17:45 10° N visible
07 Sep 5.9 23:55:54 12° WNW 23:55:54 12° WNW 23:56:26 10° NW visible
08 Sep 4.4 21:55:43 30° NNE 21:55:43 30° NNE 21:58:59 10° N visible
08 Sep 5.6 23:37:15 16° NW 23:37:15 16° NW 23:38:44 10° NW visible
